This is the latest recevied weather packets stored in our database for station/object OM5AST-13. If no packets are shown the sender has not sent any weather packets the latest 10 day(s).
| Time | Temp. | Humidity | Pressure | Rain* | Wind** | Luminosity | Snow |
|---|---|---|---|---|---|---|---|
| 1788195835 | 30.56° C | 34% | - | 0 mm | - | 0 W/m² | - |
| 1788194636 | 30.56° C | 35% | - | 0 mm | - | 0 W/m² | - |
| 1788193435 | 29.44° C | 36% | - | 0 mm | - | 0 W/m² | - |
| 1788192235 | 30° C | 36% | - | 0 mm | - | 0 W/m² | - |
| 1788191035 | 30° C | 36% | - | 0 mm | - | 0 W/m² | - |
| 1788189835 | 31.11° C | 35% | - | 0 mm | - | 0 W/m² | - |
| 1788188635 | 31.11° C | 37% | - | 0 mm | - | 0 W/m² | - |
| 1788187435 | 28.89° C | 40% | - | 0 mm | - | 0 W/m² | - |
| 1788186245 | 29.44° C | 39% | - | 0 mm | - | 0 W/m² | - |
| 1788185035 | 29.44° C | 39% | - | 0 mm | - | 0 W/m² | - |
| 1788183835 | 28.89° C | 38% | - | 0 mm | - | 0 W/m² | - |
| 1788182635 | 29.44° C | 39% | - | 0 mm | - | 0 W/m² | - |
| 1788181435 | 29.44° C | 38% | - | 0 mm | - | 0 W/m² | - |
| 1788180235 | 28.89° C | 38% | - | 0 mm | - | 0 W/m² | - |
| 1788179035 | 28.33° C | 38% | - | 0 mm | - | 0 W/m² | - |
| 1788177848 | 28.89° C | 36% | - | 0 mm | - | 0 W/m² | - |
| 1788176635 | 28.89° C | 41% | - | 0 mm | - | 0 W/m² | - |
| 1788175435 | 28.89° C | 42% | - | 0 mm | - | 0 W/m² | - |
| 1788174235 | 28.33° C | 43% | - | 0 mm | - | 0 W/m² | - |
| 1788173035 | 28.33° C | 43% | - | 0 mm | - | 0 W/m² | - |
| 1788171835 | 27.78° C | 43% | - | 0 mm | - | 0 W/m² | - |
| 1788170635 | 27.78° C | 46% | - | 0 mm | - | 0 W/m² | - |
| 1788169435 | 27.22° C | 47% | - | 0 mm | - | 0 W/m² | - |
| 1788168235 | 26.67° C | 48% | - | 0 mm | - | 0 W/m² | - |
| 1788167035 | 26.67° C | 49% | - | 0 mm | - | 0 W/m² | - |
* Rain latest hour (hover to see other rain measurements)
** Current wind speed in m/s (hover to see current wind gust speed)